Regional Weather Roundup
Issued by NWS

Home | Current Version | Previous Version | Graphics & Text | Print | Product List | Glossary On
Versions: 1 2 3 4 5 6 7 8 9 10 11 12 13 14 15 16 17 18 19 20 21 22 23 24 25 26 27 28 29 30 31 32 33 34 35 36 37 38 39 40 41 42 43 44 45 46 47 48 49 50
473
ASUS44 KMEG 111900
RWRTN
TENNESSEE HOURLY STATE WEATHER ROUNDUP
NATIONAL WEATHER SERVICE MEMPHIS TN
100 PM CST THU FEB 11 2016

TNZ002-004-019-021-049-052-054-088>092-112000-
WEST TENNESSEE

CITY           SKY/WX    TMP DP  RH WIND       PRES   REMARKS
MEMPHIS INTL   MOSUNNY   50  21  32 NE9G17    30.16F
NWS MEMPHIS      N/A     49 N/A N/A MISG        N/A
JACKSON        SUNNY     48  21  34 NE13      30.19F
DYERSBURG      SUNNY     41  21  45 E10       30.24F
UNION CITY     SUNNY     37  25  60 NE13      30.23F WCI  29
PARIS          SUNNY     37  21  52 E9        30.23F WCI  31
LEXINGTON      SUNNY     43  19  39 N12       30.18F
$$

TNZ008-025-027-028-033-062-065-066-112000-
NORTH MIDDLE TENNESSEE

CITY           SKY/WX    TMP DP  RH WIND       PRES   REMARKS
NASHVILLE      MOSUNNY   41  22  46 NE9G17    30.23F
CLARKSVILLE    SUNNY     37  24  59 N8        30.25F WCI  31
COOKEVILLE     SUNNY     37  21  52 NE7       30.18F WCI  32
CROSSVILLE     MOSUNNY   35  19  52 N6        30.15F WCI  30
$$

TNZ061-075-076-078-094-096-097-112000-
SOUTH MIDDLE TENNESSEE

CITY           SKY/WX    TMP DP  RH WIND       PRES   REMARKS
TULLAHOMA      SUNNY     39  23  52 N7        30.17F WCI  34
WINCHESTER     SUNNY     45  23  42 N8        30.16F
MCMINNVILLE    SUNNY     39  25  56 N8        30.19F WCI  34
COLUMBIA       SUNNY     41  27  56 NE6       30.18F
SHELBYVILLE    SUNNY     43  25  49 NE9       30.20F
$$

TNZ017-018-042-046-047-112000-
NORTHEAST TENNESSEE

CITY           SKY/WX    TMP DP  RH WIND       PRES   REMARKS
TRI CITIES     MOSUNNY   33  17  51 W13       30.16F WCI  24
$$

TNZ012-013-036-069-073-074-112000-
CENTRAL EAST TENNESSEE

CITY           SKY/WX    TMP DP  RH WIND       PRES   REMARKS
KNOXVILLE      MOSUNNY   38  19  46 VRB3      30.18F
OAK RIDGE      CLOUDY    40  18  41 W6        30.19F
GATLINBURG     CLEAR     37  18  44 VRB3      30.17F
$$

TNZ083-085-099-112000-
SOUTHEAST TENNESSEE

CITY           SKY/WX    TMP DP  RH WIND       PRES   REMARKS
CHATTANOOGA    MOSUNNY   46  21  37 NE9       30.18F
$$

SKY/WX REPORTED AS FAIR MEANS FEW OR NO CLOUDS BELOW
12 THOUSAND FEET.





USA.gov is the U.S. government's official web portal to all federal, state and local government web resources and services.